sat.trackr.live / text

‹ back to catalog

STARLINK-31483

NORAD 59411 · 2024-064P

PAYLOAD ACTIVE UNKNOWN

§ Identity

Operator
Country
US
Launch date
2024-04-05
Launch site
AFETR
Launch vehicle
Mass (kg)
RCS (m²)

Purposes: comms

External: N2YO · Heavens-Above · Gunter

§ Orbital elements

Epoch: 2026-05-24T22:12:21.553344Z

Period
94.27 min
Inclination
43.0019°
Eccentricity
0.0000905
Mean motion
15.27589013 rev/d
Perigee alt
482.4 km
Apogee alt
483.6 km
Semi-major
6,861.2 km
B*
2.1576e-6
RAAN
345.7510°
Arg perigee
274.6779°
Mean anomaly
85.3969°
Rev number
12,088

§ Raw data

STARLINK-314831 59411U 24064P   26144.92524946 -.00000203  00000+0  21576-5 0  99952 59411  43.0019 345.7510 0000905 274.6779  85.3969 15.27589013120880

JSON: /api/v1/satellites/59411 · /tle

For live sub-satellite position, see the globe view (requires WebGL).

§ Visibility from observer

Set your observer location to see the next 7 days of passes ≥ 10°. The values pass through the URL so the page stays shareable.

No JS? Fill the form by hand. The geolocation button needs JavaScript.